Location: Ellerstadt
(49.4644°N, 8.2615°E)
Time: 02:07:53
(UTC+00:00)

Cosmos 2278 Rocket - Pass Details

Date: 03 March 2021
Orbit: 841 x 845 km, 71.0° (Epoch: 16 April)

Event Time Altitude Azimuth Distance (km) Brightness Sun altitude
Rises 18:39:06 0° 334° (NNW) 3,416 5.8 -14.7°
Reaches altitude 10° 18:41:55 10° 346° (NNW) 2,477 4.9 -15.2°
Maximum altitude 18:46:45 28° 45° (NE) 1,547 3.3 -16.0°
Enters shadow 18:48:40 23° 76° (ENE) 1,724 3.3 -16.3°
